Regional Weather Roundup
Issued by NWS

Home | Current Version | Previous Version | Graphics & Text | Print | Product List | Glossary On
Versions: 1 2 3 4 5 6 7 8 9 10 11 12 13 14 15 16 17 18 19 20 21 22 23 24 25 26 27 28 29 30 31 32 33 34 35 36 37 38 39 40 41 42 43 44 45 46 47 48 49 50
000
ASUS43 KMPX 171510
RWRMN
WEATHER ROUNDUP FOR MINNESOTA
NATIONAL WEATHER SERVICE TWIN CITIES/CHANHASSEN MN
1000 AM CDT TUE OCT 17 2017


NOTE: "FAIR" INDICATES FEW OR NO CLOUDS BELOW 12,000 FEET WITH NO
SIGNIFICANT WEATHER AND/OR OBSTRUCTIONS TO VISIBILITY. N/A MEANS
CURRENT SKY AND/OR WEATHER CONDITIONS ARE NOT AVAILABLE.

MNZ060>063-068>070-171600-
   Twin Cities Metro

CITY           SKY/WX    TMP DP  RH WIND       PRES   REMARKS
TWIN CITIES    MOSUNNY   53  43  68 SW3       30.02S
ST PAUL        SUNNY     51  45  79 E5        30.04S
CRYSTAL        SUNNY     52  41  66 S3        30.01R
BLAINE         MOSUNNY   54  45  71 S5        30.01S
LAKEVILLE      SUNNY     54  43  66 SW3       30.02S
EDEN PRAIRIE   SUNNY     51  44  77 S7        30.01S
SOUTH ST PAUL  SUNNY     53  42  66 CALM      30.02S
LAKE ELMO      FAIR      52  45  76 S3        30.03S
$$
MNZ001>005-007-008-013>017-022>024-027-028-171600-
   Northwest Minnesota

CITY           SKY/WX    TMP DP  RH WIND       PRES   REMARKS
BEMIDJI        CLOUDY    52  38  60 S6        29.94S
HALLOCK        CLOUDY    48  37  66 S14       29.82F
ROSEAU           N/A     50  41  71 S12       29.85F
WARROAD        SUNNY     50  41  71 S6        29.86F
THIEF RVR FALL CLOUDY    48  37  65 S9        29.90F
CROOKSTON      CLOUDY    46  37  71 S12       29.89F
FOSSTON        CLOUDY    50  37  62 S9        29.93S
DETROIT LAKES  SUNNY     52  43  71 S7        29.96S
MOORHEAD       SUNNY     46  37  71 S8        29.95S
PARK RAPIDS    SUNNY     50  44  80 S5        29.96S
MAHNOMEN       FAIR      52  41  67 S10       29.93F
$$
MNZ006-009>011-018-025>026-171600-
   North Central Minnesota

CITY           SKY/WX    TMP DP  RH WIND       PRES   REMARKS
BAUDETTE       CLOUDY    49  38  65 S6        29.88F
FLAG ISLAND    SUNNY     52  43  71 S10       29.85F
INTL FALLS     CLOUDY    47  37  68 S5        29.92S
WASKISH        CLOUDY    52  37  58 S6        29.91S
BIG FORK       CLOUDY    43  39  87 CALM      29.94S
LONGVILLE      SUNNY     52  43  71 SW3       29.97R
GRAND RAPIDS   CLOUDY    52  42  69 S5        29.98S
CRANE LAKE     MOSUNNY   45  37  76 CALM      29.96R
ORR            CLOUDY    50  36  57 CALM      29.92S
COOK           CLOUDY    46  37  71 CALM      29.95S
WALKER         FAIR      54  38  56 S3        29.96S
$$
MNZ012-019>021-037-171600-
   Northeast Minnesota

CITY           SKY/WX    TMP DP  RH WIND       PRES   REMARKS
DULUTH         MOSUNNY   57  41  55 SW8       29.97S
ELY            CLOUDY    48  37  66 S3        29.96R
HIBBING        CLOUDY    44  39  82 CALM      29.96R
EVELETH        CLOUDY    44  42  95 CALM      29.97S
DULUTH HARBOR  MOSUNNY   54  45  71 SW10      29.98S
TWO HARBORS    PTSUNNY   55  43  62 CALM      29.95S
SILVER BAY     MOSUNNY   52  41  66 CALM      29.95S
GRAND MARAIS     N/A     55  42  61 W8        29.95R
G MARAIS ARPRT SUNNY     54  30  40 W3        29.96R
$$
MNZ029>031-032-039>041-046>048-054>057-064-171600-
   West Central Minnesota

CITY           SKY/WX    TMP DP  RH WIND       PRES   REMARKS
FERGUS FALLS   SUNNY     48  43  81 S5        29.98F
WHEATON        SUNNY     48  41  76 SE5       30.00S
MORRIS         SUNNY     48  45  87 SE3       29.99R
ALEXANDRIA     SUNNY     55  46  71 CALM      30.01R
ELBOW LAKE     FAIR      48  44  86 S6        29.99S
WADENA         SUNNY     52  43  71 S5        29.96F
GLENWOOD       SUNNY     52  46  82 CALM      30.00S
APPLETON       SUNNY     52  43  71 CALM      29.99F
BENSON         SUNNY     48  45  87 CALM      30.02S
ORTONVILLE     SUNNY     48  43  81 NE3       29.99S
MADISON        SUNNY     54  45  71 CALM      30.00S
WILLMAR        FAIR      50  45  81 CALM      30.02S
$$
MNZ033>034-036-042>043-049>051-058-059-171600-
   Central Minnesota

CITY           SKY/WX    TMP DP  RH WIND       PRES   REMARKS
ST CLOUD       SUNNY     49  44  83 CALM      30.01R
SAUK CENTRE    FAIR      47  44  87 CALM      30.00F
PAYNESVILLE    SUNNY     51  45  82 CALM      30.02R
AITKIN         SUNNY     52  43  71 CALM      29.97R
PINE RIVER     SUNNY     46  39  76 CALM      30.01R
BRAINERD       SUNNY     51  43  74 S6        29.99S
STAPLES        SUNNY     48  41  76 S3        29.97F
LONG PRAIRIE   FAIR      50  45  81 CALM      30.00S
LITTLE FALLS   SUNNY     50  39  66 CALM      30.00S
LITCHFIELD     SUNNY     54  46  76 CALM      30.01F
BUFFALO        SUNNY     49  42  77 CALM      30.02S
MAPLE LAKE     SUNNY     52  46  81 CALM      30.02S
HUTCHINSON     CLOUDY    51  44  79 CALM      30.02S
$$
MNZ037-044-045-052-053-171600-
   East Central Minnesota

CITY           SKY/WX    TMP DP  RH WIND       PRES   REMARKS
PRINCETON      SUNNY     52  45  76 CALM      30.02R
MORA           SUNNY     45  41  87 CALM      30.02F
CAMBRIDGE      SUNNY     54  43  66 CALM      30.02R
RUSH CITY      SUNNY     49  42  76 CALM      30.02S
MOOSE LAKE     SUNNY     45  41  87 CALM      29.98S
HINCKLEY       FAIR      46  43  87 CALM      30.01S
CLOQUET        SUNNY     52  39  62 SW3       29.98S
MCGREGOR       SUNNY     52  43  71 CALM      29.99S
$$
MNZ071>073-080-081-089-090-097-098-171600-
   Southwest Minnesota

CITY           SKY/WX    TMP DP  RH WIND       PRES   REMARKS
MONTEVIDEO     SUNNY     57  48  72 CALM      30.01S
GRANITE FALLS  SUNNY     54  45  73 CALM      30.03S
CANBY          SUNNY     61  39  44 SW7       30.01S
MARSHALL       SUNNY     58  44  60 CALM      30.02R
REDWOOD FALLS  SUNNY     53  40  61 W3        30.02S
OLIVIA         SUNNY     50  43  76 CALM      30.01S
PIPESTONE      SUNNY     54  45  71 SW5       30.04S
WORTHINGTON    SUNNY     57  41  55 SW8       30.05S
JACKSON        SUNNY     54  41  62 SW8       30.05S
TRACY          SUNNY     59  43  56 SW9       30.03R
SLAYTON        SUNNY     59  43  55 SW3       30.04S
$$
MNZ065>067-074>077-082>085-091>093-171600-
   South Central Minnesota

CITY           SKY/WX    TMP DP  RH WIND       PRES   REMARKS
MANKATO        SUNNY     54  42  64 SW6       30.04S
NEW ULM        SUNNY     52  41  66 CALM      30.03S
ST JAMES       SUNNY     55  43  62 SW5       30.04S
FAIRMONT       SUNNY     55  42  61 SW13      30.05S
GLENCOE        SUNNY     52  44  75 SW3       30.02R
FARIBAULT      SUNNY     54  43  66 CALM      30.04S
OWATONNA       SUNNY     55  43  62 SW7       30.04S
WASECA         SUNNY     54  41  62 SW7       30.06R
ALBERT LEA     SUNNY     57  45  62 SW5       30.05S
$$
MNZ078>079-086>088-094>096-171600-
   Southeast Minnesota

CITY           SKY/WX    TMP DP  RH WIND       PRES   REMARKS
ROCHESTER      SUNNY     57  43  59 SW10      30.06R
RED WING       SUNNY     54  41  62 CALM      30.03S
STANTON        SUNNY     55  43  65 SW8       30.02S
DODGE CENTER   SUNNY     54  41  62 SW8       30.04S
WINONA         SUNNY     55  43  62 CALM      30.06S
AUSTIN         SUNNY     54  43  66 SW8       30.06S
PRESTON        SUNNY     54  41  62 SW8       30.07S
$$
ABBREVIATIONS USED IN REMARKS
   TC - TEMPERATURES IN CELSIUS
  WCI - WIND CHILL INDEX
   HX - HEAT INDEX
  VSB - VISIBILITY
$$




USA.gov is the U.S. government's official web portal to all federal, state and local government web resources and services.